| time (UTC) | temp C | wind direction | speed KPH | gust KPH | rain 1hr cm | rain 24hr cm | rain mn cm | humidity % | barometer mb |
| 20260503220036 | 12 | 302 | 3.2 | 12.9 | 0.08 | 2.21 | 1.42 | 69 | 1011.2 |
| 20260503214535 | 11 | 234 | 4.8 | 17.7 | 0.08 | 2.13 | 1.35 | 69 | 1010.8 |
| 20260503213035 | 11 | 284 | 8.0 | 27.4 | 0.08 | 2.13 | 1.35 | 68 | 1010.5 |
| 20260503211537 | 11 | 272 | 9.7 | 27.4 | 0.08 | 2.16 | 1.35 | 68 | 1010.4 |
| 20260503210033 | 11 | 250 | 4.8 | 20.9 | 0.08 | 2.16 | 1.35 | 68 | 1010.2 |
| 20260503204542 | 11 | 274 | 8.0 | 19.3 | 0.00 | 2.06 | 1.27 | 68 | 1009.9 |
| 20260503203036 | 11 | 270 | 6.4 | 29.0 | 0.00 | 2.06 | 1.27 | 68 | 1009.7 |
| 20260503201538 | 11 | 277 | 6.4 | 20.9 | 0.00 | 2.06 | 1.27 | 68 | 1009.5 |
| 20260503200035 | 11 | 267 | 8.0 | 22.5 | 0.00 | 2.06 | 1.27 | 68 | 1009.5 |
| 20260503194537 | 11 | 263 | 8.0 | 25.7 | 0.00 | 2.06 | 1.27 | 68 | 1009.3 |
| 20260503193040 | 11 | 270 | 8.0 | 35.4 | 0.00 | 2.06 | 1.24 | 68 | 1009.1 |
| 20260503191535 | 11 | 310 | 12.9 | 35.4 | 0.03 | 2.06 | 1.24 | 68 | 1009.0 |
| 20260503190042 | 11 | 252 | 6.4 | 32.2 | 0.03 | 2.06 | 1.24 | 68 | 1009.1 |
| 20260503184537 | 11 | 267 | 11.3 | 32.2 | 0.03 | 2.06 | 1.24 | 68 | 1009.0 |
| 20260503183052 | 11 | 267 | 11.3 | 30.6 | 0.00 | 2.03 | 1.22 | 68 | 1008.9 |
| 20260503181540 | 11 | 281 | 6.4 | 20.9 | 0.00 | 2.08 | 1.22 | 68 | 1009.0 |
| 20260503180037 | 11 | 280 | 9.7 | 27.4 | 0.00 | 2.08 | 1.22 | 68 | 1009.1 |
| 20260503174536 | 11 | 288 | 8.0 | 33.8 | 0.00 | 2.08 | 1.22 | 68 | 1009.1 |
| 20260503173035 | 11 | 249 | 8.0 | 27.4 | 0.00 | 2.08 | 1.22 | 68 | 1009.2 |
| 20260503171537 | 11 | 280 | 6.4 | 38.6 | 0.00 | 2.11 | 1.22 | 68 | 1009.3 |
| 20260503081535 | 12 | 286 | 8.0 | 32.2 | 0.15 | 0.79 | 0.79 | 60 | 1009.1 |
| 20260503071538 | 12 | 293 | 9.7 | 38.6 | 0.00 | 0.76 | 0.64 | 61 | 1008.5 |
| 20260503054541 | 11 | 281 | 12.9 | 38.6 | 0.25 | 0.94 | 0.56 | 64 | 1008.9 |
| 20260503053032 | 12 | 263 | 9.7 | 25.7 | 0.13 | 0.84 | 0.43 | 65 | 1008.8 |
| 20260503051536 | 12 | 287 | 8.0 | 20.9 | 0.08 | 1.09 | 0.38 | 63 | 1008.9 |
| 20260503050035 | 13 | 221 | 14.5 | 38.6 | 0.00 | 0.99 | 0.28 | 60 | 1008.6 |
| 20260503044542 | 13 | 252 | 12.9 | 35.4 | 0.00 | 0.99 | 0.28 | 60 | 1008.4 |
| 20260503043040 | 13 | 269 | 14.5 | 37.0 | 0.00 | 0.99 | 0.28 | 58 | 1008.1 |
| 20260503041537 | 13 | 281 | 19.3 | 38.6 | 0.00 | 1.32 | 0.28 | 58 | 1008.3 |
| 20260503040038 | 13 | 296 | 14.5 | 32.2 | 0.00 | 1.32 | 0.28 | 58 | 1008.6 |
| 20260503034534 | 13 | 277 | 19.3 | 45.1 | 0.00 | 1.32 | 0.28 | 57 | 1008.5 |
| 20260503033044 | 13 | 267 | 17.7 | 54.7 | 0.00 | 1.32 | 0.28 | 60 | 1008.5 |
| 20260503031539 | 13 | 296 | 16.1 | 35.4 | 0.00 | 1.45 | 0.28 | 62 | 1008.6 |
| 20260503030036 | 13 | 294 | 16.1 | 40.2 | 0.00 | 1.45 | 0.28 | 60 | 1008.7 |
| 20260503024533 | 13 | 276 | 11.3 | 27.4 | 0.00 | 1.42 | 0.28 | 58 | 1008.7 |
| 20260503023037 | 13 | 267 | 14.5 | 40.2 | 0.00 | 1.42 | 0.28 | 58 | 1008.8 |
| 20260503021537 | 12 | 290 | 17.7 | 37.0 | 0.00 | 1.42 | 0.28 | 60 | 1008.9 |
| 20260503020037 | 12 | 268 | 16.1 | 33.8 | 0.00 | 1.42 | 0.28 | 62 | 1009.1 |
| 20260503014536 | 12 | 263 | 11.3 | 25.7 | 0.00 | 1.40 | 0.25 | 60 | 1009.1 |
| 20260503013044 | 12 | 296 | 17.7 | 40.2 | 0.00 | 1.40 | 0.25 | 60 | 1008.9 |
| 20260503011537 | 12 | 277 | 14.5 | 37.0 | 0.00 | 1.40 | 0.25 | 60 | 1008.9 |
| 20260503010047 | 12 | 269 | 12.9 | 30.6 | 0.00 | 1.40 | 0.25 | 60 | 1009.0 |
| 20260503004537 | 12 | 303 | 12.9 | 37.0 | 0.00 | 1.40 | 0.25 | 59 | 1008.9 |
| 20260503003035 | 12 | 291 | 12.9 | 38.6 | 0.00 | 1.40 | 0.25 | 59 | 1009.0 |
| 20260503001535 | 12 | 285 | 19.3 | 35.4 | 0.00 | 1.60 | 0.25 | 59 | 1008.7 |
| 20260503000037 | 11 | 265 | 14.5 | 35.4 | 0.00 | 1.60 | 0.25 | 60 | 1008.7 |
| 20260502234539 | 11 | 262 | 11.3 | 29.0 | 0.00 | 1.60 | 0.25 | 61 | 1008.8 |
| 20260502233033 | 11 | 291 | 12.9 | 30.6 | 0.00 | 1.60 | 0.25 | 61 | 1009.0 |
| 20260502231537 | 11 | 220 | 9.7 | 24.1 | 0.00 | 1.60 | 0.25 | 61 | 1009.3 |
| 20260502230034 | 11 | 243 | 9.7 | 25.7 | 0.00 | 1.60 | 0.25 | 62 | 1009.4 |
| 20260502224539 | 10 | 299 | 9.7 | 20.9 | 0.00 | 1.60 | 0.25 | 63 | 1009.3 |
| 20260502223035 | 10 | 266 | 9.7 | 22.5 | 0.00 | 1.60 | 0.25 | 64 | 1009.2 |
| 20260502221535 | 10 | 281 | 9.7 | 27.4 | 0.00 | 1.60 | 0.25 | 64 | 1009.3 |